Home > Weather > Cape Canaveral > Past weeks

Flag for USA Weather for the Past 2 Weeks in Cape Canaveral, Florida, USA

Now
70 °F

Thundershowers. Sunny.


Feels Like: 68 °F
Forecast: 70 / 78 °F
Wind: 25 mph from Southwest

Location: Cape Kennedy

Current Time: May 4, 2016 at 12:23:51 PM

Latest Report: May 4, 2016 at 11:58 AM


Visibility: 9 mi

Pressure: 29.84 "Hg

Humidity: 87%

Dew Point: 66 °F

Location of Cape CanaveralLocation

Historic Weather in Cape Canaveral — Graph

°F

Cape Canaveral Temperature Yesterday

Maximum temperature yesterday: 90 °F (at 2:58 PM)
Minimum temperature yesterday: 73 °F (at 6:58 AM)
Average temperature yesterday: 82 °F

High & Low Weather Summary for the Past Weeks

 TemperatureHumidityPressure
High90 °F (May 3, 2:58 PM)95% (Apr 30, 5:58 AM)30.20 "Hg (Apr 30, 5:58 AM)
Low57 °F (Apr 20, 3:58 AM)46% (Apr 20, 2:58 PM)29.80 "Hg (May 4, 5:58 AM)
Average75 °F72%30.00 "Hg
* Reported Apr 19 9:58 AM — May 4 9:58 AM, Cape Canaveral, Weather by CustomWeather, © 2016

Note: Actual official high and low records may vary slightly from our data, if they occured in-between our weather recording intervals... More about our weather records

Advertising

Cape Canaveral Weather History for the Previous 24 Hours

Scroll right to see more
 ConditionsComfort  
Time TempWeatherWind HumidityBarometerVisibility
9:58 AM
Wed, May 4
70 °FSunny.13 mph86%29.82 "Hg10 mi
9:00 AM72 °FThunderstorms. Sunny.15 mph88%29.86 "Hg6 mi
8:58 AM72 °FThundershowers. Sunny.15 mph85%29.87 "Hg6 mi
7:59 AM75 °FThundershowers. Sunny.12 mph94%29.82 "Hg10 mi
6:58 AM75 °FClear.10 mph90%29.81 "Hg10 mi
5:58 AM75 °FClear.8 mph90%29.80 "Hg10 mi
4:58 AM75 °FClear.8 mph89%29.82 "Hg10 mi
3:58 AM75 °FClear.8 mph87%29.82 "Hg10 mi
2:58 AM75 °FClear.7 mph89%29.83 "Hg10 mi
1:58 AM77 °FPassing clouds.7 mph81%29.85 "Hg10 mi
12:58 AM79 °FClear.6 mph75%29.86 "Hg10 mi
11:58 PM
Tue, May 3
76 °FClear.2 mph90%29.88 "Hg10 mi
10:58 PM78 °FClear.2 mph88%29.89 "Hg10 mi
9:58 PM78 °FClear.7 mph84%29.88 "Hg10 mi
8:58 PM78 °FClear.5 mph73%29.88 "Hg10 mi
7:58 PM80 °FThundershowers. Sunny.6 mph69%29.87 "Hg10 mi
7:04 PM86 °FThunderstorms. Passing clouds.9 mph59%29.85 "Hg10 mi
6:58 PM86 °FThundershowers. Sunny.8 mph57%29.86 "Hg10 mi
5:58 PM88 °FSunny.8 mph46%29.86 "Hg10 mi
4:58 PM88 °FSunny.10 mph49%29.84 "Hg10 mi
3:58 PM89 °FSunny.10 mph46%29.86 "Hg10 mi
2:58 PM90 °FSunny.14 mph46%29.89 "Hg10 mi
1:58 PM89 °FPassing clouds.10 mph49%29.91 "Hg10 mi
12:58 PM88 °FSunny.12 mph55%29.93 "Hg10 mi
Weather by CustomWeather, © 2016

See weather overviewHow to use our weather pages